Temperature
19 19 19 19 19 20 20 20 20 20 20 19 19 19 19 19 19 19 19 19 18 18 18 18 18 18 18 18 18 18 18 18 18 18 17 17 17 17 17 17 17 17 17
20 20 19 19 20 20 20 20 20 20 20 20 19 19 19 19 19 19 19 19 18 18 18 18 18 18 18 18 18 18 18 18 18 17 17 17 17 17 17 17 17 17 17
20 20 19 19 20 20 20 20 20 20 20 19 19 19 19 19 19 19 19 18 18 18 18 18 18 18 18 18 18 18 18 17 17 17 17 17 17 17 17 17 17 17 17
20 20 20 20 20 20 20 20 20 20 20 19 19 19 19 19 19 19 19 19 19 18 18 18 18 18 18 18 18 18 17 17 17 17 17 17 17 17 17 17 17 17 17
20 20 20 20 20 20 20 20 20 19 19 19 19 19 19 19 19 19 19 19 19 19 18 18 18 18 18 18 18 17 17 17 17 17 17 17 17 17 17 17 17 17 17
20 20 20 20 20 20 19 19 19 19 19 19 19 19 19 19 19 19 19 19 19 18 18 18 18 18 18 18 17 17 17 17 17 17 17 17 17 17 17 17 17 17 17
20 20 19 20 19 19 19 19 19 19 19 19 19 19 19 19 19 19 19 19 19 18 18 18 18 18 18 18 17 17 17 17 17 17 17 17 17 17 17 17 17 17 17
20 20 19 19 19 19 19 19 19 19 19 19 19 19 19 19 19 18 19 19 19 18 18 18 18 18 18 17 17 17 17 17 17 17 17 17 17 17 17 17 17 17 17
19 19 19 19 19 19 19 19 19 19 19 19 19 19 19 19 18 18 18 18 18 18 18 18 18 18 18 17 17 17 17 17 17 17 17 17 17 17 17 17 17 17 17
19 19 19 19 19 19 19 19 19 19 19 19 19 19 18 18 18 18 18 18 18 18 18 18 18 18 18 17 17 17 17 17 17 17 17 17 17 17 17 17 17 17 17
19 19 19 19 19 19 19 19 19 18 18 18 18 18 18 18 18 18 18 18 18 18 18 18 18 18 18 17 17 17 17 17 17 17 17 17 17 17 17 17 17 17 17
19 19 19 19 19 18 18 18 18 18 18 18 18 18 18 18 18 18 18 18 18 18 18 18 18 18 18 18 17 17 17 17 17 17 17 17 17 17 17 17 17 17 17
19 19 19 19 19 19 18 18 18 18 18 18 18 18 18 18 17 17 17 17 17 17 17 17 17 17 17 17 17 17 17 17 17 17 17 17 17 17 17 17 17 17 17
19 19 19 18 18 18 18 18 18 18 18 18 18 18 18 17 17 17 17 17 17 17 17 17 17 17 17 17 17 17 17 17 17 17 17 17 17 17 17 17 17 17 17
18 18 18 18 18 18 18 18 18 18 18 18 17 17 17 17 17 17 17 17 17 17 17 17 17 17 17 17 17 17 17 17 17 17 17 17 17 17 17 17 17 17 17
18 18 18 18 18 18 18 18 18 18 17 17 17 17 17 17 17 17 17 17 17 17 16 16 16 16 16 16 16 16 17 16 17 17 17 17 17 17 17 17 17 17 17
18 18 18 18 18 18 18 18 17 17 17 17 17 17 17 17 17 17 16 16 16 16 16 16 16 16 16 16 16 16 16 16 16 16 16 16 17 17 17 17 17 17 17
18 18 18 18 18 18 18 18 17 17 17 17 17 17 17 17 17 16 16 16 16 16 16 16 16 16 16 16 16 16 16 16 16 16 16 16 16 16 16 16 16 16 16
18 18 18 18 18 18 17 17 17 17 17 17 17 17 17 16 16 16 16 16 16 16 16 16 15 15 15 15 15 15 16 16 16 16 16 16 16 16 16 16 16 16 16
18 18 18 18 18 17 17 17 17 17 17 17 16 16 16 16 16 16 16 16 15 15 15 15 15 15 15 15 15 15 15 15 15 16 16 16 16 16 16 16 16 16 16
17 17 18 17 17 17 17 17 17 17 17 16 16 16 16 16 16 15 15 15 15 15 15 15 14 14 14 14 14 15 15 15 15 15 15 15 16 16 16 16 16 16 16
17 17 17 17 17 17 17 17 17 17 17 16 16 16 16 16 15 15 15 15 15 14 14 14 14 14 14 14 14 14 14 15 14 15 15 15 15 15 15 15 15 16 16
17 17 18 17 17 17 17 17 17 17 16 16 16 16 16 15 15 15 15 14 14 14 14 14 14 14 13 13 13 13 13 13 14 14 14 14 14 14 15 15 15 15 15
18 18 18 17 17 17 17 17 17 17 16 16 16 16 15 15 15 15 14 14 14 14 13 13 13 13 13 13 13 12 12 12 12 13 14 14 14 14 14 14 14 15 15
18 18 18 17 17 17 17 17 16 16 16 16 16 15 15 15 15 14 14 14 13 13 13 13 13 12 12 12 12 12 12 12 12 12 12 13 13 14 13 14 14 14 14
18 18 18 17 17 17 17 16 16 16 16 16 15 15 15 14 14 14 14 13 13 13 13 12 12 12 12 12 12 11 11 11 11 11 11 12 12 13 13 13 14 14 14
Wind_Speed
9 13 20 20 20 20 21 21 21 21 20 20 20 19 18 17 16 15 14 13 12 11 11 11 11 11 12 12 12 13 13 13 13 13 14 15 15 15 16 17 17 16 18
13 17 21 21 21 21 20 20 20 20 20 19 19 18 17 16 15 14 13 12 11 11 11 11 11 11 12 12 12 12 13 12 12 13 14 14 15 15 16 16 15 15 17
16 17 21 21 21 20 20 20 19 19 19 18 18 17 16 15 14 13 12 11 11 11 11 11 11 11 12 12 12 12 12 12 12 12 12 11 13 14 15 16 16 16 16
15 17 19 22 21 20 20 19 19 18 18 17 17 16 15 14 13 13 12 11 10 10 10 10 11 11 11 11 11 11 11 11 11 11 9 9 11 13 14 16 16 16 16
12 15 19 22 21 20 19 19 18 18 17 16 16 15 14 13 12 12 11 10 10 10 10 10 10 10 10 10 10 10 10 10 10 9 8 8 10 13 14 15 15 15 15
11 14 19 22 20 20 19 18 17 17 16 15 15 14 13 12 11 11 10 10 9 9 9 9 9 9 9 8 8 8 8 8 9 8 8 9 10 13 14 15 14 15 14
12 13 18 21 20 19 19 18 17 16 16 15 14 13 12 11 11 10 10 9 9 8 8 8 8 8 7 7 7 7 6 7 8 8 8 8 10 13 14 14 14 14 14
12 12 17 20 19 19 18 17 17 16 15 14 13 12 12 10 9 9 9 8 8 8 7 7 7 6 6 5 5 6 6 7 8 7 7 8 10 12 13 14 14 14 13
10 9 11 16 17 18 17 17 16 15 14 13 12 12 11 10 9 8 8 7 7 7 6 6 5 5 4 3 3 4 5 7 7 6 7 7 10 12 13 13 14 14 13
8 7 8 11 13 13 14 15 14 13 12 12 11 11 10 9 9 8 7 6 6 6 5 5 5 4 3 2 1 2 3 5 6 6 6 8 11 12 13 14 14 14 14
9 6 6 7 9 10 11 12 12 12 11 11 10 10 8 6 6 6 6 6 6 5 5 4 4 4 3 1 0 1 2 3 4 5 6 9 11 12 13 14 14 14 14
11 9 7 7 7 9 8 8 7 7 8 7 7 7 6 5 4 4 5 6 5 5 4 3 3 3 2 1 1 1 1 2 2 4 6 9 11 13 14 14 14 14 15
10 9 7 7 7 7 5 6 6 5 5 5 6 6 5 4 3 2 2 2 2 3 1 1 1 1 1 1 1 1 1 1 3 4 6 9 12 14 15 16 16 16 15
9 8 7 6 6 6 6 5 5 4 4 4 4 6 6 3 2 2 2 2 2 2 2 1 1 1 1 0 1 1 1 2 3 4 6 9 11 14 15 16 17 17 17
7 6 7 7 7 6 5 4 4 3 4 4 4 4 6 4 3 2 2 2 2 2 2 2 1 1 1 1 1 1 2 3 3 4 6 7 10 13 15 16 18 18 18
7 7 6 7 6 6 4 3 3 4 4 4 4 4 5 5 4 3 3 3 3 3 2 2 2 1 1 1 2 2 2 3 3 5 6 7 8 11 13 15 16 18 19
6 6 7 7 6 7 5 4 4 5 5 4 4 5 5 6 6 5 3 2 3 3 3 3 3 2 1 1 2 2 2 3 4 5 6 7 7 9 12 14 16 17 18
6 6 7 7 7 6 5 4 4 5 5 4 5 5 5 6 7 6 3 2 3 4 3 2 2 2 1 1 2 2 2 3 4 5 5 6 6 7 9 12 15 16 17
6 6 6 6 6 6 5 4 5 5 4 4 5 4 5 6 7 6 4 3 4 4 3 2 2 1 1 2 2 2 2 2 3 4 4 4 5 6 8 10 12 15 17
6 5 5 6 6 6 5 5 4 4 3 4 4 4 4 5 6 6 5 4 5 3 3 2 2 2 1 2 2 3 3 3 2 2 3 3 3 4 5 7 8 10 14
7 6 6 6 6 6 4 4 4 2 2 2 2 3 4 5 6 6 4 4 4 3 2 2 1 2 2 2 2 3 3 3 2 2 3 2 3 4 4 4 6 7 8
7 7 7 7 6 5 4 3 3 3 3 2 2 3 4 4 5 5 5 4 3 3 3 2 2 1 2 2 1 1 3 4 3 3 3 3 4 4 5 4 4 5 7
8 8 8 7 6 5 5 4 4 4 3 2 2 2 2 3 4 5 5 5 4 3 2 1 2 2 1 1 1 2 1 1 3 3 3 3 4 4 4 6 5 5 5
7 7 7 7 6 5 6 6 6 4 3 2 1 1 2 3 4 4 5 5 4 3 2 1 2 1 2 0 1 0 1 2 1 3 3 3 5 4 5 5 6 6 6
7 7 7 7 6 5 6 7 6 5 3 3 2 3 2 3 3 4 5 5 4 2 2 1 2 1 1 1 1 0 0 0 1 2 3 4 4 4 4 5 5 5 6
7 7 7 8 6 6 6 7 7 7 6 5 4 3 2 2 2 3 4 4 3 2 2 2 2 2 1 1 1 1 1 1 2 2 3 3 4 4 4 4 4 5 6
Wind_Direction
149 152 148 143 137 131 128 125 123 123 123 124 125 127 129 130 130 130 128 126 123 120 115 109 105 104 103 102 103 104 106 109 112 113 114 115 116 117 116 113 112 113 113
144 151 149 145 140 135 132 130 128 127 127 127 128 130 131 131 131 130 129 126 123 119 115 112 108 107 105 104 105 108 110 112 113 115 115 117 119 118 117 117 116 118 117
142 150 150 147 143 139 136 134 133 132 131 131 132 133 133 134 133 131 129 126 124 121 117 116 112 110 109 108 109 110 112 113 113 113 112 114 121 122 122 122 121 121 120
144 148 151 149 145 143 141 139 138 136 136 135 135 136 136 136 135 133 131 129 127 124 121 119 116 113 112 112 112 112 114 113 112 111 111 118 126 129 127 126 125 124 124
140 147 154 151 149 147 145 144 142 141 140 140 140 140 140 139 138 135 134 132 129 128 124 121 118 116 114 114 113 114 116 117 118 114 112 119 127 135 132 130 130 129 127
140 149 157 153 152 151 149 147 147 146 145 145 145 145 145 145 144 140 137 134 132 131 129 124 120 118 116 114 111 110 112 121 121 123 120 126 134 140 138 137 135 133 131
146 150 158 155 155 155 154 151 151 152 151 151 151 151 150 151 149 145 142 139 137 135 131 127 124 121 117 111 104 99 99 115 129 133 134 138 146 147 145 142 141 139 137
147 148 155 156 159 159 157 156 156 158 159 158 157 156 156 156 155 152 151 149 146 144 141 136 131 128 120 108 97 91 95 110 129 141 146 152 158 157 153 150 148 146 144
140 140 147 157 161 162 160 159 160 162 163 162 161 161 161 161 164 162 160 160 159 156 153 150 147 142 133 117 102 93 100 112 129 142 160 167 170 167 162 159 158 155 153
133 134 139 148 152 157 161 162 163 165 165 165 166 167 170 172 171 171 169 172 172 170 170 169 168 162 157 138 108 95 107 119 136 155 167 180 182 178 174 170 167 165 162
142 136 132 131 136 143 151 161 163 166 168 168 171 172 169 163 169 177 180 185 191 191 194 196 193 187 182 172 107 96 109 133 156 172 182 191 192 190 186 181 178 174 172
156 155 142 134 133 135 147 145 147 155 157 156 159 158 152 154 169 186 199 201 204 201 204 212 216 202 172 135 29 19 115 171 194 201 205 207 204 200 196 191 188 185 182
158 158 146 140 138 135 127 132 131 130 134 144 152 152 153 157 163 174 183 204 204 200 191 205 186 132 123 103 43 344 270 230 234 228 224 222 217 208 203 199 197 195 192
150 153 146 141 139 135 132 134 136 136 137 145 160 164 159 148 141 154 156 144 145 156 149 137 114 95 98 87 263 271 275 251 242 241 239 235 228 220 212 206 202 201 199
146 152 157 150 145 139 133 137 139 141 152 159 158 168 166 153 149 140 124 115 113 128 141 139 112 85 60 345 315 283 260 257 255 252 249 250 241 227 220 215 209 206 205
161 161 156 148 147 141 140 133 135 143 150 150 161 174 169 156 148 131 120 112 106 111 126 123 114 94 51 338 325 313 288 273 265 261 260 263 257 238 229 223 216 213 211
162 156 152 146 140 139 139 142 142 144 144 147 164 170 161 150 138 127 116 106 102 105 106 96 81 69 47 354 324 318 307 289 278 270 263 260 261 254 241 231 225 221 220
154 153 148 147 139 136 138 135 133 136 136 142 145 143 146 145 140 127 118 110 109 102 96 94 75 66 30 4 328 314 312 299 290 281 265 258 256 257 256 246 236 229 227
151 141 135 130 131 129 122 119 116 118 116 122 122 124 132 134 137 131 124 121 117 99 85 93 76 77 34 347 314 307 320 313 300 293 282 272 261 257 257 257 253 243 237
136 131 123 116 120 118 111 103 92 90 95 105 110 121 131 132 136 130 123 117 110 95 76 71 79 61 47 340 329 330 322 320 321 323 311 309 295 282 273 265 261 258 249
138 138 134 131 133 131 123 120 118 120 108 99 107 120 126 134 138 134 126 116 104 99 94 88 88 58 27 5 14 344 337 343 349 350 341 348 346 334 323 289 269 263 261
156 154 148 151 151 147 135 127 124 120 106 93 86 87 98 124 144 148 140 130 121 113 92 77 86 89 29 30 66 40 351 346 348 359 356 9 359 357 357 338 312 286 269
164 167 162 160 155 144 128 112 98 80 68 64 59 58 48 101 132 135 142 136 132 128 126 117 116 122 102 23 52 125 124 279 313 327 351 5 0 2 353 343 339 321 296
168 160 156 155 146 139 140 142 144 142 141 152 133 101 61 72 99 120 134 137 134 130 136 145 127 125 135 124 16 46 181 184 232 319 325 341 350 353 344 338 334 331 322
165 158 155 144 140 143 146 147 140 129 129 116 101 98 75 54 73 103 126 134 137 138 143 132 121 127 144 171 190 186 107 86 186 217 293 321 331 325 323 317 318 328 333
164 156 152 147 147 150 149 148 147 144 142 135 131 127 103 70 55 85 116 125 133 142 152 154 147 148 158 168 183 192 193 202 208 207 248 288 305 305 310 304 309 320 329
Height
1524 1527 1530 1533 1536 1538 1539 1541 1543 1544 1546 1547 1548 1550 1551 1552 1553 1554 1555 1555 1556 1557 1557 1558 1558 1559 1559 1559 1560 1560 1561 1561 1562 1562 1563 1564 1565 1566 1567 1568 1569 1570 1571
1522 1527 1530 1534 1537 1539 1541 1542 1544 1545 1547 1548 1550 1551 1552 1553 1554 1555 1556 1557 1558 1558 1559 1559 1560 1560 1561 1561 1561 1562 1562 1563 1563 1564 1565 1566 1567 1568 1569 1570 1571 1572 1573
1522 1527 1531 1534 1537 1540 1542 1544 1545 1547 1548 1550 1551 1552 1554 1555 1556 1557 1558 1559 1559 1560 1561 1561 1562 1562 1562 1563 1563 1564 1564 1565 1566 1566 1567 1568 1569 1570 1571 1572 1573 1574 1576
1523 1527 1531 1535 1538 1541 1543 1545 1546 1548 1549 1551 1552 1554 1555 1556 1557 1558 1559 1560 1561 1562 1562 1563 1563 1564 1564 1565 1565 1566 1566 1567 1568 1568 1569 1570 1571 1572 1573 1574 1575 1576 1578
1525 1528 1532 1535 1538 1541 1544 1546 1547 1549 1551 1552 1554 1555 1556 1558 1559 1560 1561 1562 1562 1563 1564 1564 1565 1566 1566 1567 1567 1568 1569 1569 1570 1570 1571 1572 1573 1574 1575 1576 1577 1578 1580
1526 1530 1533 1536 1539 1542 1544 1546 1548 1550 1552 1553 1555 1556 1558 1559 1560 1561 1562 1563 1564 1564 1565 1566 1567 1567 1568 1569 1569 1570 1571 1571 1572 1572 1573 1574 1575 1576 1577 1578 1579 1580 1581
1526 1530 1534 1537 1540 1543 1545 1547 1549 1551 1553 1554 1556 1557 1559 1560 1561 1562 1563 1564 1565 1566 1567 1567 1568 1569 1570 1570 1571 1572 1573 1573 1574 1574 1575 1576 1576 1577 1578 1580 1581 1582 1583
1526 1530 1534 1537 1541 1543 1546 1548 1550 1552 1554 1555 1557 1558 1560 1561 1562 1563 1564 1565 1566 1567 1568 1569 1569 1570 1571 1572 1572 1573 1574 1575 1575 1576 1576 1577 1578 1579 1580 1581 1582 1583 1584
1528 1531 1534 1538 1541 1544 1547 1549 1551 1553 1555 1556 1558 1559 1560 1562 1563 1564 1565 1566 1567 1568 1569 1570 1571 1571 1572 1573 1573 1574 1575 1576 1576 1577 1578 1578 1579 1580 1581 1582 1583 1584 1585
1529 1532 1535 1538 1542 1544 1547 1549 1551 1553 1555 1557 1558 1560 1561 1562 1564 1565 1566 1567 1568 1569 1570 1571 1571 1572 1573 1573 1574 1575 1576 1576 1577 1578 1578 1579 1580 1581 1582 1583 1584 1585 1586
1529 1533 1536 1539 1542 1545 1548 1550 1552 1554 1556 1557 1559 1560 1562 1563 1564 1565 1566 1567 1568 1569 1570 1571 1572 1572 1573 1573 1574 1575 1576 1577 1577 1578 1579 1579 1580 1581 1582 1583 1584 1586 1587
1527 1532 1536 1539 1542 1545 1548 1550 1552 1554 1556 1557 1559 1561 1562 1563 1564 1565 1566 1567 1568 1569 1570 1571 1571 1572 1573 1573 1574 1574 1575 1576 1577 1578 1578 1579 1580 1581 1582 1583 1584 1586 1587
1527 1531 1535 1539 1542 1544 1547 1549 1552 1554 1556 1557 1559 1561 1562 1564 1564 1565 1566 1567 1568 1569 1570 1570 1571 1571 1572 1573 1573 1574 1574 1575 1576 1577 1578 1579 1579 1580 1582 1583 1584 1585 1587
1527 1531 1535 1539 1542 1544 1547 1549 1551 1554 1556 1558 1559 1561 1562 1563 1564 1565 1566 1567 1568 1568 1569 1569 1570 1571 1571 1572 1572 1573 1573 1574 1575 1576 1576 1577 1578 1579 1580 1582 1583 1584 1585
1528 1532 1535 1538 1541 1544 1547 1549 1551 1553 1555 1557 1559 1561 1562 1563 1564 1565 1566 1566 1567 1567 1568 1568 1569 1569 1570 1570 1571 1571 1572 1572 1573 1574 1574 1575 1576 1577 1579 1580 1581 1583 1584
1528 1532 1535 1538 1541 1544 1546 1549 1551 1553 1555 1557 1559 1560 1561 1562 1563 1564 1565 1565 1565 1566 1566 1567 1567 1568 1568 1568 1569 1569 1570 1570 1571 1572 1572 1573 1574 1575 1576 1577 1579 1580 1582
1529 1533 1536 1538 1541 1544 1546 1548 1550 1552 1554 1556 1558 1560 1561 1562 1562 1563 1564 1564 1564 1565 1565 1565 1566 1566 1566 1566 1566 1567 1567 1568 1568 1569 1570 1570 1571 1572 1574 1575 1576 1577 1579
1529 1532 1535 1538 1541 1543 1546 1548 1550 1552 1554 1556 1558 1559 1560 1561 1561 1562 1563 1563 1563 1564 1564 1564 1564 1564 1564 1564 1564 1564 1565 1565 1565 1566 1566 1567 1568 1569 1570 1572 1573 1574 1576
1528 1531 1535 1537 1540 1543 1545 1548 1550 1552 1554 1556 1557 1558 1559 1560 1561 1562 1562 1562 1563 1563 1563 1563 1563 1563 1563 1563 1563 1562 1562 1562 1562 1563 1563 1564 1565 1566 1567 1568 1569 1571 1572
1528 1532 1535 1537 1540 1543 1546 1548 1550 1552 1553 1555 1556 1558 1558 1559 1560 1561 1561 1562 1562 1562 1562 1562 1562 1562 1562 1561 1561 1561 1560 1560 1560 1560 1560 1561 1562 1563 1563 1564 1566 1567 1568
1528 1532 1535 1538 1541 1543 1546 1548 1550 1551 1553 1555 1556 1557 1558 1558 1559 1560 1560 1561 1561 1561 1561 1561 1561 1561 1560 1560 1560 1559 1558 1558 1558 1558 1558 1558 1559 1559 1560 1561 1562 1563 1564
1528 1532 1535 1538 1541 1543 1546 1548 1550 1552 1553 1554 1555 1556 1557 1558 1558 1558 1559 1560 1560 1560 1560 1560 1559 1559 1559 1558 1558 1557 1557 1558 1557 1556 1556 1556 1556 1557 1557 1558 1558 1559 1560
1529 1532 1535 1538 1541 1543 1545 1548 1550 1551 1553 1554 1555 1556 1556 1557 1557 1558 1558 1559 1559 1559 1558 1558 1558 1557 1557 1557 1556 1557 1556 1555 1555 1555 1555 1555 1555 1555 1555 1556 1556 1556 1557
1529 1532 1535 1538 1541 1543 1545 1547 1549 1551 1552 1553 1554 1555 1555 1556 1556 1556 1557 1557 1557 1557 1557 1556 1556 1556 1555 1555 1555 1555 1555 1555 1555 1553 1553 1553 1553 1553 1554 1554 1554 1554 1554
1528 1532 1535 1538 1540 1542 1545 1546 1548 1550 1551 1552 1553 1554 1554 1555 1555 1555 1555 1555 1555 1555 1555 1554 1554 1554 1553 1553 1553 1553 1553 1552 1552 1552 1551 1551 1551 1551 1551 1551 1551 1551 1551
1528 1531 1534 1537 1539 1541 1544 1545 1547 1549 1550 1551 1551 1552 1553 1553 1553 1553 1553 1553 1553 1553 1553 1552 1552 1551 1551 1551 1550 1550 1550 1550 1550 1550 1549 1548 1547 1548 1548 1548 1548 1548 1547